Flag for U.S.A. Weather past 2 weeks in Fort Lauderdale, Florida, U.S.A.

Now
89 °F

Scattered clouds.


Feels Like: 99 °F
Forecast: 80 / 93 °F
Wind: 3 mph from Northeast

Location: Fort Lauderdale / Hollywood International Airport

Current Time: Aug 20, 2014 at 10:55:16 AM

Latest Report: Aug 20, 2014 at 9:53 AM


Visibility: 10 mi

Pressure: 30.07 "Hg

Humidity: 63%

Dew point: 75 °F

Location of Fort LauderdaleLocation

Historic Weather in Fort Lauderdale — Graph

°F

Fort Lauderdale temperature yesterday

Maximum temperature yesterday: 93 °F (at 3:53 PM)
Minimum temperature yesterday: 81 °F (at 6:53 AM)
Average temperature yesterday: 87 °F

Past Weeks' High & Low Weather Summary

 TemperatureHumidityPressure
High93 °F (Aug 9, 12:53 PM)97% (Aug 15, 2:53 PM)30.11 "Hg (Aug 15, 2:53 PM)
Low73 °F (Aug 15, 2:53 PM)45% (Aug 9, 5:53 PM)29.95 "Hg (Aug 7, 5:53 PM)
Average85 °F70%30.03 "Hg
* Reported Aug 5 8:53 AM — Aug 20 8:53 AM, Fort Lauderdale, Weather by CustomWeather, © 2014

Note: Actual official high and low records may vary slightly from our data, if they occured in-between our weather recording intervals... More about our weather records

Advertising

Fort Lauderdale weather history for previous 24 hours

 ConditionsComfort  
Time TempWeatherWind HumidityBarometerVisibility
8:53 AM
Aug 20
87 °FScattered clouds.No wind69%30.06 "Hg10 mi
7:53 AM85 °FPassing clouds.No wind72%30.04 "Hg10 mi
6:53 AM83 °FPassing clouds.3 mph74%30.02 "Hg10 mi
5:53 AM82 °FPassing clouds.No wind77%30.00 "Hg10 mi
4:53 AM83 °FPassing clouds.No wind74%29.99 "Hg10 mi
3:53 AM84 °FPassing clouds.No wind72%29.99 "Hg10 mi
2:53 AM84 °FPassing clouds.3 mph72%30.00 "Hg10 mi
1:53 AM84 °FPassing clouds.5 mph72%30.00 "Hg10 mi
12:53 AM85 °FPassing clouds.5 mph70%30.02 "Hg10 mi
11:53 PM
Aug 19
86 °FPassing clouds.6 mph65%30.03 "Hg10 mi
10:53 PM86 °FPassing clouds.7 mph67%30.02 "Hg10 mi
9:53 PM86 °FPassing clouds.8 mph70%30.01 "Hg10 mi
8:53 PM86 °FPassing clouds.7 mph72%30.00 "Hg10 mi
7:53 PM87 °FPartly sunny.10 mph67%29.98 "Hg10 mi
6:53 PM89 °FScattered clouds.13 mph65%29.98 "Hg10 mi
5:53 PM90 °FScattered clouds.13 mph61%29.97 "Hg10 mi
4:53 PM91 °FScattered clouds.14 mph61%29.97 "Hg10 mi
3:53 PM93 °FScattered clouds.10 mph46%29.98 "Hg10 mi
2:53 PM92 °FScattered clouds.12 mph60%29.99 "Hg10 mi
1:53 PM92 °FPartly sunny.9 mph58%30.01 "Hg10 mi
12:53 PM91 °FBroken clouds.9 mph60%30.03 "Hg10 mi
11:53 AM89 °FPartly sunny.6 mph65%30.05 "Hg10 mi
10:53 AM89 °FPartly sunny.No wind61%30.04 "Hg10 mi
Weather by CustomWeather, © 2014

See weather overviewHow to use our weather pages